Guthrie, OK

8:55 PM CST on November 20, 2017 (GMT -0600)
Guthrie Municipal

Weather History for KGOK - March, 2013

Change the Weather History Date:

Thursday, March 7, 2013

  Actual Average Record
Temperature  
Mean Temperature 55 °F -  
Max Temperature 71 °F 62 °F 84 °F (1992)
Min Temperature 39 °F 36 °F 17 °F (1955)
Degree Days  
Heating Degree Days 10    
Growing Degree Days 5 (Base 50)    
Moisture  
Dew Point 23 °F    
Average Humidity 30    
Maximum Humidity 49    
Minimum Humidity 16    
Precipitation  
Precipitation 0.00 in - - ()
Sea Level Pressure  
Sea Level Pressure 30.09 in    
Wind  
Wind Speed 13 mph (SSE)    
Max Wind Speed 26 mph    
Max Gust Speed 34 mph    
Visibility 10 miles    
Events      
Averages and records for this station are not official NWS values.
T = Trace of Precipitation, MM = Missing Value Source: NWS Daily Summary

Daily Weather History Graph

Daily Weather History Graph

Search for Another Location

Airport or City:

Trip Planner

Search our weather history database for the weather conditions in past years. The results will help you decide how hot, cold, wet, or windy it might be!

Date:

Astronomy

Mar. 07, 2013 Rise Set
Actual Time 6:51 AM CST 6:30 PM CST
Civil Twilight 6:25 AM CST 6:56 PM CST
Nautical Twilight 5:56 AM CST 7:25 PM CST
Astronomical Twilight 5:26 AM CST 7:55 PM CST
Moon 3:45 AM CST (3/7) 2:26 PM CST (3/7)
Length of Visible Light 12h 30m
Length of Day
11h 39m
Waning Crescent, 20% of the Moon is Illuminated
Mar 7
Waning Crescent
Mar 11
New
Mar 19
First Quarter
Mar 27
Full
Apr 2
Last Quarter

Hourly Weather History & Observations

Time (CST) Temp. Windchill Dew Point Humidity Pressure Visibility Wind Dir Wind Speed Gust Speed Precip Events Conditions
12:53 AM 42.1 °F 37.1 °F 21.9 °F 45% 30.19 in 10.0 mi ESE 8.1 mph - N/A   Clear
1:53 AM 42.1 °F 36.6 °F 21.9 °F 45% 30.18 in 10.0 mi SE 9.2 mph - N/A   Clear
2:53 AM 41.0 °F 35.2 °F 21.9 °F 47% 30.17 in 10.0 mi SE 9.2 mph - N/A   Clear
3:53 AM 39.9 °F 33.4 °F 21.9 °F 49% 30.15 in 9.0 mi SE 10.4 mph - N/A   Clear
4:53 AM 39.9 °F 33.4 °F 21.9 °F 49% 30.14 in 10.0 mi SE 10.4 mph - N/A   Clear
5:53 AM 41.0 °F 34.3 °F 21.0 °F 45% 30.14 in 10.0 mi SSE 11.5 mph - N/A   Clear
6:53 AM 43.0 °F 35.7 °F 19.9 °F 40% 30.14 in 10.0 mi SSE 15.0 mph 21.9 mph N/A   Clear
7:53 AM 46.0 °F 39.0 °F 19.0 °F 34% 30.14 in 10.0 mi SSE 17.3 mph 25.3 mph N/A   Clear
8:53 AM 51.1 °F - 19.0 °F 28% 30.14 in 10.0 mi SSE 16.1 mph 24.2 mph N/A   Clear
9:53 AM 55.9 °F - 19.0 °F 24% 30.13 in 10.0 mi South 19.6 mph 34.5 mph N/A   Clear
10:53 AM 61.0 °F - 19.9 °F 21% 30.11 in 10.0 mi South 26.5 mph 33.4 mph N/A   Clear
11:53 AM 63.0 °F - 21.9 °F 21% 30.11 in 10.0 mi South 20.7 mph 27.6 mph N/A   Clear
12:53 PM 66.9 °F - 21.9 °F 18% 30.08 in 10.0 mi South 20.7 mph 29.9 mph N/A   Clear
1:53 PM 70.0 °F - 24.1 °F 18% 30.05 in 10.0 mi South 16.1 mph 25.3 mph N/A   Clear
2:53 PM 71.1 °F - 23.0 °F 16% 30.03 in 10.0 mi South 17.3 mph 29.9 mph N/A   Clear
3:53 PM 71.1 °F - 23.0 °F 16% 30.01 in 10.0 mi South 19.6 mph 27.6 mph N/A   Clear
4:53 PM 71.1 °F - 24.1 °F 17% 30.01 in 10.0 mi South 12.7 mph 23.0 mph N/A   Clear
5:53 PM 68.0 °F - 24.1 °F 19% 30.01 in 10.0 mi South 19.6 mph 25.3 mph N/A   Clear
6:53 PM 64.0 °F - 26.1 °F 24% 30.03 in 10.0 mi South 10.4 mph - N/A   Clear
7:53 PM 61.0 °F - 25.0 °F 25% 30.05 in 10.0 mi SSE 9.2 mph - N/A   Clear
8:53 PM 59.0 °F - 26.1 °F 28% 30.04 in 7.0 mi SSE 12.7 mph 20.7 mph N/A   Clear
9:53 PM 60.1 °F - 27.0 °F 28% 30.05 in 9.0 mi South 13.8 mph 23.0 mph N/A   Clear
10:53 PM 59.0 °F - 27.0 °F 29% 30.05 in 10.0 mi South 15.0 mph 21.9 mph N/A   Clear
11:53 PM 60.1 °F - 27.0 °F 28% 30.05 in 10.0 mi South 18.4 mph 25.3 mph N/A   Clear